Location: ?????
(55.6500°N, 37.2500°E)
Time: 04:04:00
(UTC+00:00)

Cosmos 1980 Rocket - Pass Details

Date: 19 May 2025
Orbit: 829 x 847 km, 71.0° (Epoch: 19 June)

Event Time Altitude Azimuth Distance (km) Brightness Sun altitude
Rises 20:46:54 0° 319° (NW) 3,384 6.4 -13.9°
Reaches altitude 10° 20:50:04 10° 301° (WNW) 2,446 5.2 -14.0°
Maximum altitude 20:53:41 18° 260° (W) 1,947 4.1 -14.0°
Drops below altitude 10° 20:57:17 10° 220° (SW) 2,439 4.2 -14.1°
Enters shadow 20:57:32 - 218° (SW) 2,502 4.2 -14.1°
